Location: Dallas
(32.7833°N, 96.8000°W)
Time: 01:13:49
(UTC-05:00)

Envisat - Pass Details

Date: 19 March 2018
Orbit: 764 x 766 km, 98.1° (Epoch: 17 October)

Event Time Altitude Azimuth Distance (km) Brightness Sun altitude
Exits shadow 21:09:01 - 169° (SSE) 2,450 5.4 -19.8°
Reaches altitude 10° 21:09:25 10° 169° (S) 2,290 5.2 -19.8°
Maximum altitude 21:14:29 84° 257° (WSW) 772 3.0 -20.9°
Drops below altitude 10° 21:19:34 10° 346° (NNW) 2,304 5.8 -21.9°
Sets 21:21:53 0° 347° (NNW) 3,234 6.6 -22.4°
